Portada
METAR-TAF:

METAR-TAF

Aeroports :

Emerald, Austràlia

latitud: 23-34-03S, longitud: 148-10-45E, altitud: 190 m

Observació

L'informe es va fer fa 1 hora i 13 minuts, a les 03:00 UTC
Vent 8 kt del Est/Nord-Est
Temperatura 36°C
Humitat 9%
Pressió 1012 hPa
Visibilitat 10 km o més

METAR: YEML 180300Z AUTO 07008KT 9999 // NCD 36/M02 Q1012

Hora: 14:13 (04:13 UTC)


TAF: manca

Observacions i pronòstics meteorològics de més de 4000 aeroports (METAR i TAF).

Les estacions disponibles són els punts grocs i vermells al mapa.

Posi el ratolí al punt desitjat per veure el nom de l'estació.

Feu clic per veure les observacions i els pronòstics meteorològics.

Per canviar el mapa: feu clic els botons verds amb una creu de color negre per apropar; al botó verd amb un guió per allunyar la imatge; o en les fletxes verdes per a mapes adjacents.


METAR-TAF: